SCP
0 0 0 0 0 0 0 0 0 0 0 0 0 0 0 0 0 0 0 0 0 0 0 0 0 0 0 0 0 0 0 0 0 0 0 0 0 0 0 0 0 0 0 0 0 0 0 0 0 0 -0 -0 -0 -0
0 0 0 0 0 0 0 0 0 0 0 0 0 0 0 0 0 0 0 0 0 0 0 0 0 0 0 0 0 0 0 0 0 0 0 0 0 0 0 0 0 0 0 0 0 0 0 -0 -0 -0 -0 -0 -0 -0
0 0 0 0 0 0 0 0 0 0 0 0 0 0 0 0 0 0 0 0 0 0 0 0 0 0 0 0 0 0 0 0 0 0 0 0 0 0 0 0 0 0 0 0 0 0 0 0 0 -0 -0 -0 0 0
0 0 0 0 0 0 0 0 0 0 0 0 0 0 0 0 0 0 0 0 0 0 0 0 0 0 0 0 0 0 0 0 0 0 0 0 0 0 0 0 0 0 0 0 0 0 0 -0 0 0 0 -0 0 0
0 0 0 0 0 0 0 0 0 0 0 0 0 0 0 0 0 0 0 0 0 0 0 0 0 0 0 0 0 0 0 0 0 0 0 0 0 0 0 0 0 0 0 0 0 -0 0 -0 -0 -0 -0 0 0 0
0 0 0 0 0 0 0 0 0 0 0 0 0 0 0 0 0 0 0 0 0 0 0 0 0 0 0 0 0 0 0 0 0 0 0 0 0 0 0 0 0 0 0 0 0 -0 0 0 -0 -0 -0 -0 -0 0
0 0 0 0 0 0 0 0 0 0 0 0 0 0 0 0 0 0 0 0 0 0 0 0 0 0 0 0 0 0 0 0 0 0 0 0 0 0 0 0 0 0 0 0 0 -0 -0 -0 -0 -0 -0 -0 -0 0
0 0 0 0 0 0 0 0 0 0 0 0 0 0 0 0 0 0 0 0 0 0 0 0 0 0 0 0 0 0 0 0 0 0 0 0 0 0 0 0 0 0 0 0 -0 0 0 -0 -0 -0 0 -0 -0 -0
-0 0 0 0 0 0 0 0 0 0 -0 0 0 0 0 0 0 0 0 0 0 0 0 0 0 0 0 0 0 0 0 0 0 0 0 0 0 0 -0 0 0 0 -0 -0 -0 0 -0 -0 -0 -0 -0 0 -0 -0
0 0 0 0 0 0 0 0 0 -0 0 0 0 0 0 0 0 0 0 0 0 0 0 0 0 0 0 0 0 0 0 0 0 0 0 0 0 -0 -0 0 0 0 0 -0 -0 0 0 -0 -0 -0 -0 -0 0 0
0 0 0 0 0 0 0 0 0 0 0 0 0 0 0 0 0 0 0 0 0 0 0 0 0 0 0 0 0 0 0 0 0 0 0 0 0 -0 0 0 0 0 -0 -0 0 0 0 -0 -0 -0 -0 0 0 0
0 0 0 0 0 0 0 0 0 0 0 0 0 0 0 0 0 0 0 0 0 0 0 0 0 0 0 0 0 0 0 0 0 0 0 0 0 0 0 0 -0 -0 -0 -0 -0 0 0 0 -0 0 0 0 0 0
0 0 0 0 0 0 0 0 0 0 0 0 0 0 0 0 0 0 0 0 0 0 0 0 0 0 0 0 0 0 0 0 0 0 0 0 0 0 0 0 0 -0 -0 -0 0 0 0 0 0 0 0 0 0 0
0 0 0 0 0 0 0 0 0 0 0 0 0 0 0 0 0 0 0 0 0 0 0 0 0 0 0 0 0 0 0 0 0 0 0 0 0 0 0 0 0 0 -0 -0 -0 0 0 0 0 0 0 0 0 0
0 0 0 0 0 0 0 0 0 0 0 0 0 0 0 0 0 0 0 0 0 0 0 0 0 0 0 0 0 0 0 0 0 0 0 0 0 0 0 0 0 0 0 0 0 0 0 0 0 0 0 0 0 0
0 0 0 0 0 0 0 0 0 0 0 0 0 0 0 0 0 0 0 0 0 0 0 0 0 0 0 0 0 0 0 0 0 0 0 0 0 0 0 0 0 0 0 0 0 0 0 0 0 0 0 0 0 0
0 0 0 0 0 0 0 0 0 0 0 0 0 0 0 0 0 0 0 0 0 0 0 0 0 0 0 0 0 0 0 0 0 0 0 0 0 0 0 0 0 0 0 0 0 0 0 0 0 0 0 0 0 0
0 0 0 0 0 0 0 0 0 0 0 0 0 0 0 0 0 0 0 0 0 0 0 0 0 0 0 0 0 0 0 0 0 0 0 0 0 0 0 0 0 0 0 0 0 0 0 0 0 0 0 0 0 0
0 0 0 0 0 0 0 0 0 0 0 0 0 0 0 0 0 0 0 0 0 0 0 0 0 0 0 0 0 0 0 0 0 0 0 0 0 0 0 0 0 0 0 0 0 0 0 0 0 0 0 0 0 0
0 0 0 0 0 0 0 0 0 0 0 0 0 0 0 0 0 0 0 0 0 0 0 0 0 0 0 0 0 0 0 0 0 0 0 0 0 0 0 0 0 0 0 0 0 0 0 0 0 0 0 0 0 0
0 0 0 0 0 0 0 0 0 0 0 0 0 0 0 0 0 0 0 0 0 0 0 0 0 0 0 0 0 0 0 0 0 0 0 0 0 0 0 0 0 0 0 0 0 0 0 0 0 0 0 0 0 0
0 0 0 0 0 0 0 0 0 0 0 0 0 0 0 0 0 0 0 0 0 0 0 0 0 0 0 0 0 0 0 0 0 0 0 0 0 0 0 0 0 0 0 0 0 0 0 0 0 0 0 0 0 0
0 0 0 0 0 0 0 0 0 0 0 0 0 0 0 0 0 0 0 0 0 0 0 0 0 0 0 0 0 0 0 0 0 0 0 0 0 0 0 0 0 0 0 0 0 0 0 0 0 0 0 0 0 0
0 0 0 0 0 0 0 0 0 0 0 0 0 0 0 0 0 0 0 0 0 0 0 0 0 0 0 0 0 0 0 0 0 0 0 0 0 0 0 0 0 0 0 0 0 0 0 0 0 0 0 0 0 0
0 0 0 0 0 0 0 0 0 0 0 0 0 0 0 0 0 0 0 0 0 0 0 0 0 0 0 0 0 0 0 0 0 0 0 0 0 0 0 0 0 0 0 0 0 0 0 0 0 0 0 0 0 0
0 0 0 0 0 0 0 0 0 0 0 0 0 0 0 0 0 0 0 0 0 0 0 0 0 0 0 0 0 0 0 0 0 0 0 0 0 0 0 0 0 0 0 0 0 0 0 0 0 0 0 0 0 0
0 0 0 0 0 0 0 0 0 0 0 0 0 0 0 0 0 0 0 0 0 0 0 0 0 0 0 0 0 0 0 0 0 0 0 0 0 0 0 0 0 0 0 0 0 0 0 0 0 0 0 0 0 0
0 0 0 0 0 0 0 0 0 0 0 0 0 0 0 0 0 0 0 0 0 0 0 0 0 0 0 0 0 0 0 0 0 0 0 0 0 0 0 0 0 0 0 0 0 0 0 0 0 0 0 0 0 0
0 0 0 0 0 0 0 0 0 0 0 0 0 0 0 0 0 0 0 0 0 0 0 0 0 0 0 0 0 0 0 0 0 0 0 0 0 0 0 0 0 0 0 0 0 0 0 0 0 0 0 0 0 0
0 0 0 0 0 0 0 0 0 0 0 0 0 0 0 0 0 0 0 0 0 0 0 0 0 0 0 0 0 0 0 0 0 0 0 0 0 0 0 0 0 0 0 0 0 0 0 0 0 0 0 0 0 0
0 0 0 0 0 0 0 0 0 0 0 0 0 0 0 0 0 0 0 0 0 0 0 0 0 0 0 0 0 0 0 0 0 0 0 0 0 0 0 0 0 0 0 0 0 0 0 0 0 0 0 0 0 0
0 0 0 0 0 0 0 0 0 0 0 0 0 0 0 0 0 0 0 0 0 0 0 0 0 0 0 0 0 0 0 0 0 0 0 0 0 0 0 0 0 0 0 0 0 0 0 0 0 0 0 0 0 0
0 0 0 0 0 0 0 0 0 0 0 0 0 0 0 0 0 0 0 0 0 0 0 0 0 0 0 0 0 0 0 0 0 0 0 0 0 0 0 0 0 0 0 0 0 0 0 0 0 0 0 0 0 0
Wind_Speed_500mb
53 65 70 69 76 67 66 64 47 73 54 63 51 45 69 62 61 57 50 37 28 10 19 15 14 10 10 10 6 13 6 5 4 5 4 4 4 5 3 2 2 3 2 3 3 2 2 12 12 7 16 29 27 21
53 63 70 72 61 76 61 76 53 63 59 68 59 53 69 68 63 63 57 42 37 13 11 15 16 16 14 12 11 13 4 7 7 6 3 4 4 3 3 3 5 3 6 1 8 1 1 12 13 22 35 47 35 31
55 65 69 79 69 74 64 75 68 58 70 58 74 56 58 62 68 68 61 51 42 19 7 12 11 16 15 13 14 6 8 10 8 7 8 3 5 7 5 8 3 9 10 4 3 6 8 16 30 38 38 37 39 34
66 69 71 83 73 68 71 69 75 50 60 57 82 69 69 67 76 72 67 55 46 19 10 6 17 15 18 14 11 11 9 11 15 8 4 3 4 9 4 2 6 2 19 11 6 4 6 24 37 44 43 39 39 36
73 75 73 85 73 64 75 66 71 66 67 59 64 71 73 81 81 78 65 51 50 17 13 12 15 15 15 17 14 15 14 12 9 4 3 3 1 4 4 4 10 25 16 13 9 46 22 44 64 57 53 51 48 47
71 65 72 84 77 63 78 60 72 78 52 65 60 86 71 80 83 76 23 48 55 37 10 6 9 16 20 19 19 16 13 7 7 3 4 3 3 4 5 8 19 56 47 31 10 46 25 44 67 62 57 54 50 47
63 71 74 73 81 68 80 60 67 80 54 57 65 74 80 72 89 63 20 20 69 52 13 11 4 7 24 20 17 12 10 5 7 4 7 5 6 7 6 10 20 49 59 47 22 64 27 72 78 68 59 54 50 47
61 86 65 78 83 66 80 59 62 78 69 43 49 84 84 93 90 55 23 30 73 38 14 7 3 8 26 12 9 14 9 10 7 5 5 4 3 8 13 35 32 24 52 53 41 57 41 63 66 71 65 63 62 59
77 64 50 88 81 71 82 63 56 78 73 50 87 98 92 52 37 42 41 68 66 15 19 12 11 8 26 11 10 11 8 6 3 6 5 5 5 15 26 32 40 61 55 65 56 60 40 69 76 79 76 73 70 69
63 65 65 87 82 75 80 54 52 56 59 96 107 35 17 25 33 55 35 29 17 10 7 6 16 7 18 10 7 10 7 4 5 2 3 6 9 59 66 56 32 39 63 57 72 60 59 74 83 88 88 80 74 71
54 52 75 80 82 81 69 56 51 84 95 81 24 13 60 77 27 10 14 12 14 5 16 15 15 13 18 8 8 13 5 4 3 3 5 3 9 12 6 5 44 60 61 66 81 80 84 80 88 88 85 80 76 74
58 52 73 73 80 77 74 75 101 111 66 47 42 86 38 12 9 9 7 5 8 11 19 22 16 15 18 12 11 9 5 2 6 5 2 6 10 18 18 12 12 46 57 74 75 68 77 72 72 77 78 79 78 72
48 45 71 67 82 67 71 64 118 87 68 85 23 21 16 10 7 17 17 8 7 23 30 22 12 16 15 10 12 5 7 5 7 3 8 11 18 15 21 30 21 14 64 54 76 77 58 69 64 68 74 73 73 73
56 49 70 75 76 71 68 99 79 88 61 13 16 16 10 9 11 10 9 11 15 23 62 54 21 11 12 7 6 7 2 2 2 5 12 5 15 23 24 23 19 21 38 68 64 75 72 60 65 62 63 70 72 76
47 67 61 92 77 74 65 97 86 79 15 11 14 13 12 16 10 14 28 28 20 65 71 30 18 10 5 8 3 9 4 8 11 10 6 11 28 28 28 21 10 15 20 65 58 69 75 66 58 58 58 63 70 73
58 61 90 91 78 76 67 102 71 26 10 9 6 10 13 11 8 18 25 25 53 78 38 11 8 6 5 9 9 15 13 13 7 7 12 25 26 25 22 16 9 13 17 44 61 52 66 71 62 55 55 59 64 71
77 50 91 87 81 54 102 80 28 9 10 15 7 14 19 12 20 32 29 38 70 53 7 10 10 7 8 3 5 8 10 5 2 21 25 23 23 22 18 12 10 4 12 33 52 43 48 63 64 59 59 57 58 61
61 93 86 80 95 94 83 29 12 10 9 7 5 8 12 13 46 47 30 65 56 22 15 7 19 8 10 12 7 7 21 13 7 12 14 13 9 11 14 10 9 5 5 22 38 37 34 53 67 68 59 53 51 54
85 88 83 81 101 78 17 14 6 11 7 12 23 24 18 21 29 46 46 77 31 27 11 15 5 7 7 10 8 9 3 10 12 13 19 15 11 10 11 9 7 5 2 10 22 27 30 34 46 57 59 59 58 54
80 79 85 110 99 26 12 11 11 14 9 13 17 16 18 13 31 43 66 43 27 15 6 6 6 2 4 10 10 8 9 12 13 11 16 22 19 14 11 10 8 5 2 4 11 17 24 30 35 44 54 58 58 55
72 80 94 88 44 15 15 14 12 12 20 15 29 12 16 21 24 21 32 29 13 9 4 3 5 11 13 12 11 11 10 13 15 15 14 14 15 16 16 14 11 9 6 6 9 13 16 19 24 31 39 46 49 50
57 82 75 50 12 12 16 12 19 20 11 19 14 13 16 11 11 14 29 7 7 7 5 5 11 12 10 12 8 4 2 6 9 12 15 15 15 15 15 15 13 12 11 11 13 16 18 21 25 29 33 36 42 45
62 57 22 11 13 11 11 10 11 12 8 9 11 9 6 5 9 32 8 7 7 9 13 14 14 12 12 15 15 15 15 16 19 21 22 21 21 21 23 24 23 21 18 20 22 23 24 26 26 29 32 36 40 43
43 10 9 10 11 9 15 6 8 11 13 5 6 8 4 6 19 7 2 4 5 3 7 10 11 13 16 18 18 18 19 21 24 25 24 22 20 21 23 25 26 27 26 25 26 27 27 27 28 29 32 34 37 40
9 7 9 12 9 11 9 5 3 6 7 3 8 5 5 10 4 5 5 2 4 5 2 2 4 7 10 14 16 16 19 21 22 21 21 20 18 17 18 19 18 18 18 19 21 23 24 25 25 26 29 32 34 35
9 7 5 7 4 7 9 9 8 11 9 6 3 9 9 5 6 6 3 3 3 2 4 1 2 4 6 7 8 8 11 14 11 8 7 7 9 9 10 10 11 15 16 20 21 21 21 22 23 24 25 27 29 32
6 2 10 12 13 21 13 16 11 8 8 10 8 8 6 7 7 4 5 4 1 4 2 2 3 1 2 2 2 4 5 7 8 7 6 4 4 9 16 20 21 20 21 22 22 23 24 24 25 25 25 26 26 28
7 7 10 9 15 14 11 7 6 5 4 7 15 6 10 3 4 5 6 3 2 2 4 4 5 5 4 4 4 5 6 5 2 0 2 3 9 13 17 23 25 26 24 23 22 22 22 22 23 23 23 21 21 23
7 13 10 9 13 19 16 8 5 6 4 6 7 6 7 8 8 8 7 5 4 4 2 2 2 3 3 4 4 5 10 10 5 3 6 8 11 14 22 23 24 23 23 22 22 20 20 20 20 20 20 17 17 17
5 8 14 12 10 9 10 9 11 19 21 24 23 21 19 18 18 16 14 12 7 5 5 5 5 5 5 5 5 3 6 11 11 10 11 13 17 19 20 19 18 19 18 18 16 14 14 14 12 11 9 9 8 10
9 8 15 16 10 13 38 44 42 36 22 28 28 25 24 19 20 21 19 17 15 11 8 7 9 9 8 9 8 4 7 11 13 13 14 17 20 22 21 19 18 18 17 16 13 10 8 7 5 2 1 3 6 10
8 10 14 10 8 28 12 6 8 12 10 12 12 13 11 9 7 7 11 12 11 9 10 10 9 10 11 12 12 12 12 12 12 11 11 14 18 19 18 17 16 15 14 12 9 8 7 7 7 8 9 12 13 16
15 22 23 20 13 12 15 11 8 10 13 9 9 8 7 6 7 5 10 16 16 16 12 11 11 11 11 11 11 11 12 13 14 16 17 16 17 16 14 13 12 11 10 9 10 11 12 13 15 17 19 20 23 25
Wind_Direction_500mb
237 236 235 237 233 227 226 220 219 227 215 208 205 221 212 205 201 200 201 202 197 171 167 188 180 168 174 170 160 163 155 186 110 194 230 163 214 202 219 254 203 216 168 152 127 159 222 147 133 213 138 137 151 144
235 235 236 236 236 225 227 220 225 215 216 217 207 211 217 206 201 200 200 200 199 197 156 187 204 206 215 190 167 176 190 156 186 104 183 135 164 196 296 251 198 225 212 199 221 341 178 200 239 153 147 153 162 154
232 234 235 232 230 224 226 219 222 213 224 218 207 195 204 211 204 204 203 201 188 186 157 181 197 207 208 202 197 193 207 169 176 174 153 119 221 160 224 235 217 217 166 195 224 186 200 164 153 158 157 159 159 159
240 236 235 230 227 225 223 220 220 215 211 224 207 205 206 208 202 204 206 202 192 153 158 194 197 196 208 204 201 207 191 159 140 141 133 158 253 199 247 352 242 105 158 167 247 185 187 214 189 172 169 170 168 166
236 236 233 229 226 222 216 220 223 220 205 215 206 208 221 205 202 204 205 202 196 184 148 153 170 205 194 183 173 149 139 145 127 153 148 227 214 201 253 289 241 189 177 180 207 183 181 196 183 182 182 179 177 173
235 235 231 222 218 214 212 215 220 222 206 201 214 218 208 205 205 189 189 211 201 187 156 137 160 173 175 166 161 157 170 169 135 212 201 224 226 214 253 245 251 206 200 192 166 182 182 178 181 184 185 183 181 180
230 235 217 221 209 207 211 213 216 220 211 193 208 217 210 205 200 180 189 199 192 191 168 112 125 159 169 156 163 165 174 201 163 223 225 216 192 211 248 244 251 217 206 199 194 167 156 170 181 185 185 183 183 182
243 224 221 214 206 203 206 210 213 215 211 195 203 205 201 197 190 179 162 154 179 163 163 121 89 149 169 167 171 173 175 201 204 198 219 221 214 220 253 240 235 211 203 200 193 183 190 180 181 182 183 185 187 189
219 223 210 198 199 198 200 206 206 210 213 205 187 176 160 167 170 172 159 162 176 174 164 156 165 170 162 149 144 146 176 232 213 203 182 190 200 228 228 231 225 209 192 195 192 195 184 184 184 184 187 190 194 193
226 205 201 188 194 193 196 191 194 201 194 185 169 151 144 162 154 140 143 158 171 228 170 144 132 133 161 144 134 131 162 219 206 205 156 209 259 255 252 247 238 222 206 192 180 188 186 187 189 191 196 198 198 198
210 201 194 181 187 188 190 180 182 175 178 148 146 102 136 130 126 121 132 161 176 214 202 159 155 138 177 130 152 203 165 168 211 174 215 242 273 246 244 313 233 224 210 205 207 207 200 196 193 196 199 202 202 203
195 189 186 175 185 185 180 182 173 163 163 170 148 129 132 132 149 133 140 130 204 211 168 145 151 133 144 144 118 175 147 180 212 152 149 256 252 266 268 296 268 211 208 209 211 215 209 207 207 206 205 205 206 206
191 194 193 176 178 171 186 180 169 174 157 129 115 144 162 170 152 176 184 209 196 168 171 156 129 138 125 152 95 150 161 181 116 211 235 236 273 302 292 288 283 234 209 210 214 214 213 216 215 216 214 211 211 210
195 199 193 179 172 174 187 167 174 159 144 109 148 144 177 172 224 187 176 169 169 156 153 143 120 128 135 124 140 145 70 167 195 242 234 255 332 343 327 304 277 229 215 208 211 213 213 215 215 218 219 219 216 215
198 197 193 173 172 180 187 177 168 162 177 134 143 166 178 161 107 136 130 128 137 150 147 121 96 128 121 112 75 120 131 233 221 230 229 333 338 329 330 322 269 237 228 206 209 211 213 215 216 216 217 218 219 220
193 188 181 169 173 181 179 171 169 170 126 141 123 92 117 98 122 144 148 139 152 152 148 122 121 136 154 133 144 212 156 221 233 220 308 331 345 335 337 324 291 244 229 206 207 213 213 216 219 218 219 220 220 222
187 174 165 171 175 162 168 165 167 157 135 139 146 173 166 115 146 140 160 162 160 160 151 135 141 165 115 115 226 195 213 220 239 314 310 306 327 344 353 347 347 303 216 200 204 214 218 217 221 225 225 223 226 226
167 163 165 169 176 161 162 174 152 106 90 94 116 135 103 127 139 142 152 163 165 190 160 159 129 159 194 177 225 226 231 291 334 347 352 347 348 4 14 11 25 24 187 194 200 210 220 220 223 227 229 231 232 232
159 159 164 174 167 152 136 144 151 102 88 95 115 112 114 122 122 146 155 165 174 171 172 154 148 199 217 215 190 156 122 19 10 38 51 46 52 39 31 25 37 51 165 202 208 219 232 238 236 234 234 235 237 238
158 158 164 158 157 143 110 100 115 100 114 137 126 114 99 112 133 141 160 159 154 168 210 199 217 233 136 126 122 100 66 52 52 117 66 49 44 36 32 34 37 37 3 253 243 243 244 243 238 233 233 236 238 240
141 158 154 158 141 102 101 125 100 108 124 114 124 88 95 110 105 129 148 154 174 225 251 177 137 144 139 141 124 106 79 57 45 51 45 41 18 17 22 17 8 354 331 300 275 263 257 253 246 242 241 241 243 244
155 152 148 149 92 89 82 67 111 103 83 119 113 104 119 114 142 140 145 160 223 237 235 203 185 191 196 187 184 208 306 356 341 337 341 346 345 332 328 332 335 331 322 308 292 280 266 252 244 240 240 240 240 240
147 146 110 96 91 66 108 90 94 147 124 147 113 91 67 114 156 132 133 214 202 226 227 230 233 234 248 255 256 264 285 296 301 304 301 301 300 305 305 305 304 303 303 297 293 288 278 267 257 250 246 243 243 243
127 107 91 93 92 107 124 80 103 99 112 89 84 100 131 126 144 90 159 160 211 222 228 238 242 239 240 246 255 266 279 291 297 297 295 299 304 303 306 301 298 298 297 292 286 284 281 276 269 263 258 253 250 247
111 30 89 62 100 119 108 77 61 94 100 100 105 127 183 158 116 141 201 238 238 238 253 232 226 215 222 237 252 264 273 282 285 286 285 286 294 297 298 296 299 301 304 302 297 296 292 288 282 275 269 264 259 256
87 23 62 141 134 120 171 111 163 138 120 105 121 120 155 123 142 188 141 317 243 358 4 350 220 211 236 276 284 273 271 274 269 267 267 314 333 346 354 350 339 325 319 322 320 315 310 304 296 287 278 271 264 258
101 20 62 72 94 114 90 79 105 93 105 147 168 156 131 150 204 116 148 31 224 306 357 61 38 4 238 246 282 295 284 291 297 264 264 278 316 336 347 345 339 329 326 321 315 308 302 297 291 285 278 270 265 259
87 132 121 115 80 46 110 79 78 94 140 143 134 81 143 70 137 154 175 334 8 93 106 97 81 86 105 107 97 73 25 12 44 94 220 269 314 320 324 329 329 330 328 323 318 311 303 296 290 285 281 277 267 258
89 124 112 51 73 57 40 31 85 82 91 129 105 106 107 83 81 102 98 87 99 82 78 161 91 132 123 113 85 58 40 41 44 331 311 309 315 315 320 322 324 324 324 324 319 316 308 298 293 291 286 278 263 252
68 37 91 61 55 52 8 48 99 105 95 98 102 106 96 101 89 89 79 67 62 86 92 115 109 105 91 74 71 63 23 17 17 14 4 341 339 332 331 330 330 327 326 324 322 318 311 306 298 294 283 265 243 220
86 86 77 65 78 84 111 97 85 80 78 69 82 107 117 125 98 72 64 55 49 51 67 98 99 95 82 70 62 82 29 11 10 6 357 346 343 339 340 341 340 338 337 338 339 337 333 335 340 350 92 140 158 162
49 65 120 108 122 158 135 90 88 81 72 67 69 83 93 97 89 92 44 51 43 51 72 79 80 79 73 60 49 42 33 22 15 4 351 350 351 350 351 350 350 352 350 349 354 11 30 49 74 94 107 118 125 132
94 82 88 101 119 177 172 140 87 89 65 76 74 80 87 92 114 102 51 38 41 46 66 77 82 90 76 59 46 35 24 16 11 11 9 6 1 3 6 8 9 5 15 35 49 61 75 86 96 99 102 108 113 118
Wind_Speed_850mb
53 65 70 69 76 67 66 64 47 73 54 63 51 45 69 62 61 57 50 37 28 10 19 15 14 10 10 10 6 13 6 5 4 5 4 4 4 5 3 2 2 3 2 3 3 2 2 12 12 7 16 29 27 21
53 63 70 72 61 76 61 76 53 63 59 68 59 53 69 68 63 63 57 42 37 13 11 15 16 16 14 12 11 13 4 7 7 6 3 4 4 3 3 3 5 3 6 1 8 1 1 12 13 22 35 47 35 31
55 65 69 79 69 74 64 75 68 58 70 58 74 56 58 62 68 68 61 51 42 19 7 12 11 16 15 13 14 6 8 10 8 7 8 3 5 7 5 8 3 9 10 4 3 6 8 16 30 38 38 37 39 34
66 69 71 83 73 68 71 69 75 50 60 57 82 69 69 67 76 72 67 55 46 19 10 6 17 15 18 14 11 11 9 11 15 8 4 3 4 9 4 2 6 2 19 11 6 4 6 24 37 44 43 39 39 36
73 75 73 85 73 64 75 66 71 66 67 59 64 71 73 81 81 78 65 51 50 17 13 12 15 15 15 17 14 15 14 12 9 4 3 3 1 4 4 4 10 25 16 13 9 46 22 44 64 57 53 51 48 47
71 65 72 84 77 63 78 60 72 78 52 65 60 86 71 80 83 76 23 48 55 37 10 6 9 16 20 19 19 16 13 7 7 3 4 3 3 4 5 8 19 56 47 31 10 46 25 44 67 62 57 54 50 47
63 71 74 73 81 68 80 60 67 80 54 57 65 74 80 72 89 63 20 20 69 52 13 11 4 7 24 20 17 12 10 5 7 4 7 5 6 7 6 10 20 49 59 47 22 64 27 72 78 68 59 54 50 47
61 86 65 78 83 66 80 59 62 78 69 43 49 84 84 93 90 55 23 30 73 38 14 7 3 8 26 12 9 14 9 10 7 5 5 4 3 8 13 35 32 24 52 53 41 57 41 63 66 71 65 63 62 59
77 64 50 88 81 71 82 63 56 78 73 50 87 98 92 52 37 42 41 68 66 15 19 12 11 8 26 11 10 11 8 6 3 6 5 5 5 15 26 32 40 61 55 65 56 60 40 69 76 79 76 73 70 69
63 65 65 87 82 75 80 54 52 56 59 96 107 35 17 25 33 55 35 29 17 10 7 6 16 7 18 10 7 10 7 4 5 2 3 6 9 59 66 56 32 39 63 57 72 60 59 74 83 88 88 80 74 71
54 52 75 80 82 81 69 56 51 84 95 81 24 13 60 77 27 10 14 12 14 5 16 15 15 13 18 8 8 13 5 4 3 3 5 3 9 12 6 5 44 60 61 66 81 80 84 80 88 88 85 80 76 74
58 52 73 73 80 77 74 75 101 111 66 47 42 86 38 12 9 9 7 5 8 11 19 22 16 15 18 12 11 9 5 2 6 5 2 6 10 18 18 12 12 46 57 74 75 68 77 72 72 77 78 79 78 72
48 45 71 67 82 67 71 64 118 87 68 85 23 21 16 10 7 17 17 8 7 23 30 22 12 16 15 10 12 5 7 5 7 3 8 11 18 15 21 30 21 14 64 54 76 77 58 69 64 68 74 73 73 73
56 49 70 75 76 71 68 99 79 88 61 13 16 16 10 9 11 10 9 11 15 23 62 54 21 11 12 7 6 7 2 2 2 5 12 5 15 23 24 23 19 21 38 68 64 75 72 60 65 62 63 70 72 76
47 67 61 92 77 74 65 97 86 79 15 11 14 13 12 16 10 14 28 28 20 65 71 30 18 10 5 8 3 9 4 8 11 10 6 11 28 28 28 21 10 15 20 65 58 69 75 66 58 58 58 63 70 73
58 61 90 91 78 76 67 102 71 26 10 9 6 10 13 11 8 18 25 25 53 78 38 11 8 6 5 9 9 15 13 13 7 7 12 25 26 25 22 16 9 13 17 44 61 52 66 71 62 55 55 59 64 71
77 50 91 87 81 54 102 80 28 9 10 15 7 14 19 12 20 32 29 38 70 53 7 10 10 7 8 3 5 8 10 5 2 21 25 23 23 22 18 12 10 4 12 33 52 43 48 63 64 59 59 57 58 61
61 93 86 80 95 94 83 29 12 10 9 7 5 8 12 13 46 47 30 65 56 22 15 7 19 8 10 12 7 7 21 13 7 12 14 13 9 11 14 10 9 5 5 22 38 37 34 53 67 68 59 53 51 54
85 88 83 81 101 78 17 14 6 11 7 12 23 24 18 21 29 46 46 77 31 27 11 15 5 7 7 10 8 9 3 10 12 13 19 15 11 10 11 9 7 5 2 10 22 27 30 34 46 57 59 59 58 54
80 79 85 110 99 26 12 11 11 14 9 13 17 16 18 13 31 43 66 43 27 15 6 6 6 2 4 10 10 8 9 12 13 11 16 22 19 14 11 10 8 5 2 4 11 17 24 30 35 44 54 58 58 55
72 80 94 88 44 15 15 14 12 12 20 15 29 12 16 21 24 21 32 29 13 9 4 3 5 11 13 12 11 11 10 13 15 15 14 14 15 16 16 14 11 9 6 6 9 13 16 19 24 31 39 46 49 50
57 82 75 50 12 12 16 12 19 20 11 19 14 13 16 11 11 14 29 7 7 7 5 5 11 12 10 12 8 4 2 6 9 12 15 15 15 15 15 15 13 12 11 11 13 16 18 21 25 29 33 36 42 45
62 57 22 11 13 11 11 10 11 12 8 9 11 9 6 5 9 32 8 7 7 9 13 14 14 12 12 15 15 15 15 16 19 21 22 21 21 21 23 24 23 21 18 20 22 23 24 26 26 29 32 36 40 43
43 10 9 10 11 9 15 6 8 11 13 5 6 8 4 6 19 7 2 4 5 3 7 10 11 13 16 18 18 18 19 21 24 25 24 22 20 21 23 25 26 27 26 25 26 27 27 27 28 29 32 34 37 40
9 7 9 12 9 11 9 5 3 6 7 3 8 5 5 10 4 5 5 2 4 5 2 2 4 7 10 14 16 16 19 21 22 21 21 20 18 17 18 19 18 18 18 19 21 23 24 25 25 26 29 32 34 35
9 7 5 7 4 7 9 9 8 11 9 6 3 9 9 5 6 6 3 3 3 2 4 1 2 4 6 7 8 8 11 14 11 8 7 7 9 9 10 10 11 15 16 20 21 21 21 22 23 24 25 27 29 32
6 2 10 12 13 21 13 16 11 8 8 10 8 8 6 7 7 4 5 4 1 4 2 2 3 1 2 2 2 4 5 7 8 7 6 4 4 9 16 20 21 20 21 22 22 23 24 24 25 25 25 26 26 28
7 7 10 9 15 14 11 7 6 5 4 7 15 6 10 3 4 5 6 3 2 2 4 4 5 5 4 4 4 5 6 5 2 0 2 3 9 13 17 23 25 26 24 23 22 22 22 22 23 23 23 21 21 23
7 13 10 9 13 19 16 8 5 6 4 6 7 6 7 8 8 8 7 5 4 4 2 2 2 3 3 4 4 5 10 10 5 3 6 8 11 14 22 23 24 23 23 22 22 20 20 20 20 20 20 17 17 17
5 8 14 12 10 9 10 9 11 19 21 24 23 21 19 18 18 16 14 12 7 5 5 5 5 5 5 5 5 3 6 11 11 10 11 13 17 19 20 19 18 19 18 18 16 14 14 14 12 11 9 9 8 10
9 8 15 16 10 13 38 44 42 36 22 28 28 25 24 19 20 21 19 17 15 11 8 7 9 9 8 9 8 4 7 11 13 13 14 17 20 22 21 19 18 18 17 16 13 10 8 7 5 2 1 3 6 10
8 10 14 10 8 28 12 6 8 12 10 12 12 13 11 9 7 7 11 12 11 9 10 10 9 10 11 12 12 12 12 12 12 11 11 14 18 19 18 17 16 15 14 12 9 8 7 7 7 8 9 12 13 16
15 22 23 20 13 12 15 11 8 10 13 9 9 8 7 6 7 5 10 16 16 16 12 11 11 11 11 11 11 11 12 13 14 16 17 16 17 16 14 13 12 11 10 9 10 11 12 13 15 17 19 20 23 25
Wind_Direction_850mb
237 236 235 237 233 227 226 220 219 227 215 208 205 221 212 205 201 200 201 202 197 171 167 188 180 168 174 170 160 163 155 186 110 194 230 163 214 202 219 254 203 216 168 152 127 159 222 147 133 213 138 137 151 144
235 235 236 236 236 225 227 220 225 215 216 217 207 211 217 206 201 200 200 200 199 197 156 187 204 206 215 190 167 176 190 156 186 104 183 135 164 196 296 251 198 225 212 199 221 341 178 200 239 153 147 153 162 154
232 234 235 232 230 224 226 219 222 213 224 218 207 195 204 211 204 204 203 201 188 186 157 181 197 207 208 202 197 193 207 169 176 174 153 119 221 160 224 235 217 217 166 195 224 186 200 164 153 158 157 159 159 159
240 236 235 230 227 225 223 220 220 215 211 224 207 205 206 208 202 204 206 202 192 153 158 194 197 196 208 204 201 207 191 159 140 141 133 158 253 199 247 352 242 105 158 167 247 185 187 214 189 172 169 170 168 166
236 236 233 229 226 222 216 220 223 220 205 215 206 208 221 205 202 204 205 202 196 184 148 153 170 205 194 183 173 149 139 145 127 153 148 227 214 201 253 289 241 189 177 180 207 183 181 196 183 182 182 179 177 173
235 235 231 222 218 214 212 215 220 222 206 201 214 218 208 205 205 189 189 211 201 187 156 137 160 173 175 166 161 157 170 169 135 212 201 224 226 214 253 245 251 206 200 192 166 182 182 178 181 184 185 183 181 180
230 235 217 221 209 207 211 213 216 220 211 193 208 217 210 205 200 180 189 199 192 191 168 112 125 159 169 156 163 165 174 201 163 223 225 216 192 211 248 244 251 217 206 199 194 167 156 170 181 185 185 183 183 182
243 224 221 214 206 203 206 210 213 215 211 195 203 205 201 197 190 179 162 154 179 163 163 121 89 149 169 167 171 173 175 201 204 198 219 221 214 220 253 240 235 211 203 200 193 183 190 180 181 182 183 185 187 189
219 223 210 198 199 198 200 206 206 210 213 205 187 176 160 167 170 172 159 162 176 174 164 156 165 170 162 149 144 146 176 232 213 203 182 190 200 228 228 231 225 209 192 195 192 195 184 184 184 184 187 190 194 193
226 205 201 188 194 193 196 191 194 201 194 185 169 151 144 162 154 140 143 158 171 228 170 144 132 133 161 144 134 131 162 219 206 205 156 209 259 255 252 247 238 222 206 192 180 188 186 187 189 191 196 198 198 198
210 201 194 181 187 188 190 180 182 175 178 148 146 102 136 130 126 121 132 161 176 214 202 159 155 138 177 130 152 203 165 168 211 174 215 242 273 246 244 313 233 224 210 205 207 207 200 196 193 196 199 202 202 203
195 189 186 175 185 185 180 182 173 163 163 170 148 129 132 132 149 133 140 130 204 211 168 145 151 133 144 144 118 175 147 180 212 152 149 256 252 266 268 296 268 211 208 209 211 215 209 207 207 206 205 205 206 206
191 194 193 176 178 171 186 180 169 174 157 129 115 144 162 170 152 176 184 209 196 168 171 156 129 138 125 152 95 150 161 181 116 211 235 236 273 302 292 288 283 234 209 210 214 214 213 216 215 216 214 211 211 210
195 199 193 179 172 174 187 167 174 159 144 109 148 144 177 172 224 187 176 169 169 156 153 143 120 128 135 124 140 145 70 167 195 242 234 255 332 343 327 304 277 229 215 208 211 213 213 215 215 218 219 219 216 215
198 197 193 173 172 180 187 177 168 162 177 134 143 166 178 161 107 136 130 128 137 150 147 121 96 128 121 112 75 120 131 233 221 230 229 333 338 329 330 322 269 237 228 206 209 211 213 215 216 216 217 218 219 220
193 188 181 169 173 181 179 171 169 170 126 141 123 92 117 98 122 144 148 139 152 152 148 122 121 136 154 133 144 212 156 221 233 220 308 331 345 335 337 324 291 244 229 206 207 213 213 216 219 218 219 220 220 222
187 174 165 171 175 162 168 165 167 157 135 139 146 173 166 115 146 140 160 162 160 160 151 135 141 165 115 115 226 195 213 220 239 314 310 306 327 344 353 347 347 303 216 200 204 214 218 217 221 225 225 223 226 226
167 163 165 169 176 161 162 174 152 106 90 94 116 135 103 127 139 142 152 163 165 190 160 159 129 159 194 177 225 226 231 291 334 347 352 347 348 4 14 11 25 24 187 194 200 210 220 220 223 227 229 231 232 232
159 159 164 174 167 152 136 144 151 102 88 95 115 112 114 122 122 146 155 165 174 171 172 154 148 199 217 215 190 156 122 19 10 38 51 46 52 39 31 25 37 51 165 202 208 219 232 238 236 234 234 235 237 238
158 158 164 158 157 143 110 100 115 100 114 137 126 114 99 112 133 141 160 159 154 168 210 199 217 233 136 126 122 100 66 52 52 117 66 49 44 36 32 34 37 37 3 253 243 243 244 243 238 233 233 236 238 240
141 158 154 158 141 102 101 125 100 108 124 114 124 88 95 110 105 129 148 154 174 225 251 177 137 144 139 141 124 106 79 57 45 51 45 41 18 17 22 17 8 354 331 300 275 263 257 253 246 242 241 241 243 244
155 152 148 149 92 89 82 67 111 103 83 119 113 104 119 114 142 140 145 160 223 237 235 203 185 191 196 187 184 208 306 356 341 337 341 346 345 332 328 332 335 331 322 308 292 280 266 252 244 240 240 240 240 240
147 146 110 96 91 66 108 90 94 147 124 147 113 91 67 114 156 132 133 214 202 226 227 230 233 234 248 255 256 264 285 296 301 304 301 301 300 305 305 305 304 303 303 297 293 288 278 267 257 250 246 243 243 243
127 107 91 93 92 107 124 80 103 99 112 89 84 100 131 126 144 90 159 160 211 222 228 238 242 239 240 246 255 266 279 291 297 297 295 299 304 303 306 301 298 298 297 292 286 284 281 276 269 263 258 253 250 247
111 30 89 62 100 119 108 77 61 94 100 100 105 127 183 158 116 141 201 238 238 238 253 232 226 215 222 237 252 264 273 282 285 286 285 286 294 297 298 296 299 301 304 302 297 296 292 288 282 275 269 264 259 256
87 23 62 141 134 120 171 111 163 138 120 105 121 120 155 123 142 188 141 317 243 358 4 350 220 211 236 276 284 273 271 274 269 267 267 314 333 346 354 350 339 325 319 322 320 315 310 304 296 287 278 271 264 258
101 20 62 72 94 114 90 79 105 93 105 147 168 156 131 150 204 116 148 31 224 306 357 61 38 4 238 246 282 295 284 291 297 264 264 278 316 336 347 345 339 329 326 321 315 308 302 297 291 285 278 270 265 259
87 132 121 115 80 46 110 79 78 94 140 143 134 81 143 70 137 154 175 334 8 93 106 97 81 86 105 107 97 73 25 12 44 94 220 269 314 320 324 329 329 330 328 323 318 311 303 296 290 285 281 277 267 258
89 124 112 51 73 57 40 31 85 82 91 129 105 106 107 83 81 102 98 87 99 82 78 161 91 132 123 113 85 58 40 41 44 331 311 309 315 315 320 322 324 324 324 324 319 316 308 298 293 291 286 278 263 252
68 37 91 61 55 52 8 48 99 105 95 98 102 106 96 101 89 89 79 67 62 86 92 115 109 105 91 74 71 63 23 17 17 14 4 341 339 332 331 330 330 327 326 324 322 318 311 306 298 294 283 265 243 220
86 86 77 65 78 84 111 97 85 80 78 69 82 107 117 125 98 72 64 55 49 51 67 98 99 95 82 70 62 82 29 11 10 6 357 346 343 339 340 341 340 338 337 338 339 337 333 335 340 350 92 140 158 162
49 65 120 108 122 158 135 90 88 81 72 67 69 83 93 97 89 92 44 51 43 51 72 79 80 79 73 60 49 42 33 22 15 4 351 350 351 350 351 350 350 352 350 349 354 11 30 49 74 94 107 118 125 132
94 82 88 101 119 177 172 140 87 89 65 76 74 80 87 92 114 102 51 38 41 46 66 77 82 90 76 59 46 35 24 16 11 11 9 6 1 3 6 8 9 5 15 35 49 61 75 86 96 99 102 108 113 118